Погода в Баклановской

Россия / Ставропольский край     45°27′15″N   41°36′36″E
темп.,
°C
ветер,
м/с
пор.,
м/с
влажн.,
%
обл.,
%
осадки,
мм/ч
давл.,
гПа
погр.,
м
12 мая, ср
ср1200:00+8всв2397100 4.3 1017124
03:00+7св2697100 4.6 1017249
06:00+7св4695100 0.4 1018449
09:00+11вюв227923 0.5 1018540
12:00+16в34625 0.0 10161068
15:00+19вюв67545 0.0 10151298
18:00+18в367159 0.0 1014201
21:00+13в46848 0.0 101482
13 мая, чт
чт1300:00+12вюв45831 0.0 101377
03:00+11в48780 0.0 1013121
06:00+11юв35840 0.0 1013102
09:00+18юв22660 0.0 1013383
12:00+23в33561 0.0 1013858
15:00+25в45535 0.0 10131078
18:00+22вюв487122 0.0 1013236
21:00+18вюв41277100 0.0 1013200
14 мая, пт
пт1400:00+16вюв410764 0.0 1012168
03:00+15вюв4117811 0.0 1012157
06:00+15вюв47830 0.0 1012134
09:00+23вюв45660 0.0 1012397
12:00+27в44544 0.0 1011667
15:00+28в55530 0.0 1010897
18:00+25вюв49700 0.0 1010243
21:00+20юв48776 0.0 1010114
15 мая, сб
сб1500:00+18вюв36780 0.0 101089
03:00+17ю22830 0.0 101012
06:00+17ююз34904 0.0 101185
09:00+23з45785 0.0 1012509
12:00+27зсз34660 0.0 10121020
15:00+28сз44587 0.0 10111366
18:00+25зсз357430 0.0 1011210
21:00+20з3383100 0.6 101242
16 мая, вс
вс1600:00+19ссв119187 0.0 101011
03:00+18юв00935 0.0 101011
06:00+19всв23945 0.0 101086
09:00+23всв34705 0.0 1008433
12:00+26в56485 0.0 1007772
15:00+27вюв685558 0.0 10061181
18:00+24в41062100 0.0 1004289
21:00+21в6164351 0.0 1004488